| time (UTC) | temp F | wind direction | speed knots | gust knots | rain 1hr in | rain 24hr in | rain mn in | humidity % | barometer mb |
| 20260504044501 | 44 | 166 | 0.0 | 0.0 | 0.00 | 0.00 | 0.00 | 60 | 1012.3 |
| 20260504043001 | 44 | 166 | 0.0 | 0.0 | 0.00 | 0.00 | 0.00 | 60 | 1012.3 |
| 20260504041601 | 44 | 166 | 0.0 | 0.0 | 0.00 | 0.00 | 0.00 | 63 | 1012.3 |
| 20260504040132 | 44 | 166 | 0.0 | 0.0 | 0.00 | 0.00 | 0.00 | 62 | 1012.1 |
| 20260504034603 | 44 | 166 | 0.0 | 0.0 | 0.00 | 0.00 | 0.00 | 63 | 1012.2 |
| 20260504033058 | 44 | 166 | 0.0 | 0.0 | 0.00 | 0.00 | 0.00 | 60 | 1012.2 |
| 20260504031621 | 46 | 166 | 0.0 | 0.0 | 0.00 | 0.00 | 0.00 | 56 | 1012.3 |
| 20260504030059 | 46 | 166 | 0.0 | 0.0 | 0.00 | 0.00 | 0.00 | 55 | 1012.2 |
| 20260504024605 | 46 | 166 | 0.0 | 0.0 | 0.00 | 0.00 | 0.00 | 54 | 1012.3 |
| 20260504023059 | 47 | 166 | 0.0 | 0.0 | 0.00 | 0.00 | 0.00 | 52 | 1012.3 |
| 20260504021559 | 48 | 166 | 0.0 | 0.0 | 0.00 | 0.00 | 0.00 | 52 | 1012.4 |
| 20260504020110 | 50 | 166 | 0.0 | 0.0 | 0.00 | 0.00 | 0.00 | 48 | 1012.3 |
| 20260504014558 | 50 | 167 | 0.0 | 0.0 | 0.00 | 0.00 | 0.00 | 46 | 1012.1 |
| 20260504013058 | 50 | 167 | 0.0 | 0.0 | 0.00 | 0.00 | 0.00 | 46 | 1011.9 |
| 20260504011556 | 50 | 216 | 0.0 | 0.0 | 0.00 | 0.00 | 0.00 | 46 | 1012.0 |
| 20260504010057 | 51 | 222 | 0.0 | 0.0 | 0.00 | 0.00 | 0.00 | 45 | 1012.1 |
| 20260504004556 | 51 | 246 | 0.0 | 0.0 | 0.00 | 0.00 | 0.00 | 45 | 1011.9 |
| 20260504003056 | 52 | 246 | 0.0 | 0.0 | 0.00 | 0.00 | 0.00 | 43 | 1011.8 |
| 20260504001559 | 52 | 246 | 0.0 | 0.9 | 0.00 | 0.00 | 0.00 | 42 | 1011.8 |
| 20260504000056 | 53 | 360 | 0.0 | 3.5 | 0.00 | 0.00 | 0.00 | 41 | 1011.7 |
| 20260503234624 | 54 | 299 | 4.3 | 9.6 | 0.00 | 0.00 | 0.00 | 39 | 1011.6 |
| 20260503233055 | 55 | 279 | 0.9 | 8.7 | 0.00 | 0.00 | 0.00 | 38 | 1011.4 |
| 20260503231555 | 56 | 299 | 2.6 | 7.8 | 0.00 | 0.00 | 0.00 | 37 | 1011.5 |
| 20260503230056 | 55 | 304 | 3.5 | 13.9 | 0.00 | 0.00 | 0.00 | 37 | 1011.4 |
| 20260503224554 | 56 | 304 | 7.0 | 15.6 | 0.00 | 0.00 | 0.00 | 35 | 1011.3 |
| 20260503223054 | 55 | 326 | 0.9 | 9.6 | 0.00 | 0.00 | 0.00 | 38 | 1011.4 |
| 20260503221559 | 55 | 309 | 4.3 | 13.9 | 0.00 | 0.00 | 0.00 | 38 | 1011.3 |
| 20260503220055 | 55 | 295 | 5.2 | 13.9 | 0.00 | 0.00 | 0.00 | 38 | 1011.5 |
| 20260503214554 | 56 | 302 | 3.5 | 15.6 | 0.00 | 0.00 | 0.00 | 37 | 1011.4 |
| 20260503213056 | 55 | 302 | 1.7 | 13.0 | 0.00 | 0.00 | 0.00 | 38 | 1011.3 |
| 20260503211553 | 55 | 324 | 2.6 | 10.4 | 0.00 | 0.00 | 0.00 | 38 | 1011.3 |
| 20260503210052 | 56 | 317 | 3.5 | 12.2 | 0.00 | 0.00 | 0.00 | 36 | 1011.4 |
| 20260503204555 | 55 | 306 | 7.0 | 17.4 | 0.00 | 0.00 | 0.00 | 37 | 1011.4 |
| 20260503203056 | 55 | 312 | 7.8 | 13.0 | 0.00 | 0.00 | 0.00 | 37 | 1011.5 |
| 20260503201552 | 54 | 322 | 6.1 | 12.2 | 0.00 | 0.00 | 0.00 | 38 | 1011.4 |
| 20260503200054 | 55 | 297 | 8.7 | 14.8 | 0.00 | 0.00 | 0.00 | 38 | 1011.6 |
| 20260503194555 | 54 | 299 | 3.5 | 11.3 | 0.00 | 0.00 | 0.00 | 41 | 1012.0 |
| 20260503193044 | 53 | 312 | 8.7 | 13.9 | 0.00 | 0.00 | 0.00 | 40 | 1012.3 |
| 20260503191544 | 53 | 315 | 7.0 | 15.6 | 0.00 | 0.00 | 0.00 | 40 | 1012.4 |
| 20260503190043 | 54 | 306 | 7.0 | 13.9 | 0.00 | 0.00 | 0.00 | 40 | 1012.5 |
| 20260503184541 | 53 | 304 | 7.0 | 16.5 | 0.00 | 0.00 | 0.00 | 38 | 1012.5 |
| 20260503183038 | 54 | 338 | 5.2 | 16.5 | 0.00 | 0.00 | 0.00 | 40 | 1012.6 |
| 20260503181536 | 53 | 306 | 7.0 | 12.2 | 0.00 | 0.00 | 0.00 | 40 | 1012.7 |
| 20260503180035 | 52 | 301 | 8.7 | 13.9 | 0.00 | 0.00 | 0.00 | 39 | 1013.0 |
| 20260503174534 | 53 | 336 | 7.0 | 12.2 | 0.00 | 0.00 | 0.00 | 41 | 1013.0 |
| 20260503173037 | 53 | 340 | 8.7 | 18.2 | 0.00 | 0.00 | 0.00 | 39 | 1013.0 |
| 20260503171535 | 51 | 307 | 6.1 | 13.9 | 0.00 | 0.00 | 0.00 | 39 | 1013.1 |
| 20260503081525 | 36 | 313 | 0.0 | 3.5 | 0.00 | 0.00 | 0.00 | 76 | 1014.2 |
| 20260503071522 | 36 | 298 | 1.7 | 5.2 | 0.00 | 0.00 | 0.00 | 75 | 1014.0 |
| 20260503054512 | 37 | 318 | 0.0 | 0.0 | 0.00 | 0.00 | 0.00 | 73 | 1014.3 |
| 20260503053012 | 37 | 318 | 0.0 | 3.5 | 0.00 | 0.00 | 0.00 | 73 | 1014.3 |
| 20260503051511 | 38 | 318 | 0.0 | 0.0 | 0.00 | 0.00 | 0.00 | 73 | 1014.5 |
| 20260503050022 | 38 | 318 | 0.0 | 0.0 | 0.00 | 0.00 | 0.00 | 73 | 1014.6 |